[[{"header":{"parameterUnit":"m.s-1","parameterCategory":1,"la1":30.2991,"la2":30.254,"lo1":-89.0895,"lo2":-89.0444,"dy":0.0017,"dx":0.0017,"nx":28,"ny":28,"refTime":"2024-07-27T03:00:00:Z","depth":0,"parameterNumber":2,"parameterNumberName":"U-component_of_WINDS"},"data":[0,0,0,0,0,0,0,0,0,0,0,0,0,0,0,0,0,0,0,0,0,0,0,0,0,0,0,0,0,0,0,0,0,0,0,0,0,0,0,0,0,0,0,0,0,0,0,0,0,0,0,0,0,0,0,0,0,0,-1.9127,-1.9129,0,-1.928,-1.9282,-1.9284,-1.935,-1.935,-1.9349,-1.9349,-1.9505,-1.951,-1.9514,0,0,0,0,0,0,0,0,0,0,0,0,0,-1.8892,-1.8896,-1.9127,-1.9129,-1.9131,-1.928,-1.9282,-1.9284,-1.935,-1.9349,-1.9349,-1.9349,-1.9504,-1.9509,-1.9514,0,0,0,0,0,0,0,0,0,0,0,0,0,-1.9014,-1.8897,-1.9127,-1.9182,-1.9188,-1.928,-1.9282,-1.9285,-1.935,-1.9349,-1.9349,-1.9349,-1.9502,-1.9509,-1.9515,-1.9563,0,0,-1.9535,-1.9538,0,0,0,0,0,0,0,0,-1.9007,-1.9023,-1.9172,-1.9178,-1.9186,-1.9296,-1.9257,-1.9378,-1.935,-1.9288,-1.9349,-1.9349,-1.9436,-1.9448,-1.9477,-1.9571,-1.9577,-1.9536,-1.954,-1.9543,-1.9544,0,0,0,0,0,0,0,-1.8999,-1.9017,-1.9188,-1.9174,-1.9182,-1.9199,-1.9216,-1.928,-1.9362,-1.9294,-1.9299,-1.9316,-1.944,-1.9471,-1.9481,-1.958,-1.9536,-1.9541,-1.9546,-1.9548,-1.972,-1.9721,0,0,0,0,0,0,-1.8981,-1.9009,-1.9183,-1.9192,-1.9094,-1.9203,-1.9222,-1.9261,-1.9362,-1.9377,-1.9316,-1.9319,-1.946,-1.9474,-1.9487,-1.9551,-1.9543,-1.9549,-1.9553,-1.972,-1.972,-1.9721,0,0,0,0,0,0,-1.8976,-1.8996,-1.9177,-1.9102,-1.9127,-1.9208,-1.925,-1.9264,-1.9295,-1.9379,-1.9394,-1.9333,-1.946,-1.9478,-1.9544,-1.9557,-1.9552,-1.9558,-1.9719,-1.972,-1.9721,-1.9677,0,0,0,0,0,0,-1.8969,-1.8994,-1.9013,-1.9102,-1.913,-1.9231,-1.9251,-1.9267,-1.9306,-1.9311,-1.9399,-1.9413,-1.9461,-1.9534,-1.955,-1.9566,-1.9563,-1.9718,-1.9719,-1.972,-1.9678,-1.9676,-1.9675,0,0,0,0,0,-1.896,-1.8994,-1.9014,-1.9034,-1.9156,-1.9231,-1.9247,-1.9302,-1.9307,-1.9327,-1.9381,-1.941,-1.9553,-1.954,-1.9559,-1.9577,-1.9718,-1.9719,-1.972,-1.9678,-1.9677,-1.9675,0,0,0,0,0,0,-1.8905,-1.9007,-1.903,-1.9094,-1.9153,-1.9242,-1.9269,-1.9299,-1.9358,-1.936,-1.9426,-1.9445,-1.9505,-1.9548,-1.9532,-1.9629,-1.9638,-1.9643,-1.9599,-1.9598,-1.9597,-1.9585,-1.9568,0,0,0,0,0,-1.89,-1.8952,-1.9039,-1.9087,-1.9116,-1.9187,-1.9222,-1.9259,-1.9324,-1.9349,-1.9408,-1.9469,-1.9528,-1.9566,-1.9624,-1.9684,-1.9704,-1.9706,-1.9704,-1.9703,-1.9707,-1.9742,-1.9744,-1.9726,-1.9726,-1.9726,0,0,-1.889,-1.8953,-1.8982,-1.9078,-1.9128,-1.9182,-1.9208,-1.9263,-1.9303,-1.9358,-1.9424,-1.9469,-1.9542,-1.9605,-1.9636,-1.9642,-1.9716,-1.9705,-1.9703,-1.9708,-1.9744,-1.9745,-1.9747,-1.9727,-1.9726,-1.9726,0,0,-1.89,-1.8953,-1.8999,-1.9049,-1.9125,-1.9172,-1.9183,-1.9268,-1.93,-1.9367,-1.9409,-1.9458,-1.9558,-1.9608,-1.9647,-1.9675,-1.9705,-1.9693,-1.9686,-1.972,-1.9721,-1.9723,-1.9733,-1.9736,-1.9696,-1.9696,-1.9696,0,-1.8879,-1.8961,-1.9019,-1.9072,-1.9112,-1.9164,-1.9211,-1.9257,-1.9348,-1.9375,-1.9382,-1.9508,-1.9561,-1.9636,-1.9643,-1.9673,-1.9688,-1.9683,-1.9716,-1.9718,-1.9721,-1.9731,-1.9735,-1.9694,-1.9694,-1.9695,-1.9695,0,-1.8931,-1.8987,-1.9015,-1.9102,-1.9146,-1.9195,-1.9261,-1.9298,-1.9331,-1.9378,-1.9446,-1.9511,-1.9584,-1.9604,-1.9637,-1.9685,-1.9687,-1.9703,-1.9714,-1.9719,-1.9731,-1.9735,-1.9691,-1.9692,-1.9693,-1.9693,0,0,-1.891,-1.9028,-1.9038,-1.9078,-1.9166,-1.921,-1.9262,-1.9333,-1.9364,-1.9426,-1.9471,-1.9554,-1.9571,-1.9614,-1.9653,-1.9683,-1.9702,-1.9696,-1.9699,-1.9695,-1.9758,-1.9745,-1.9748,-1.9721,-1.9722,-1.9723,-1.9752,0,-1.8932,-1.9027,-1.9081,-1.9154,-1.9206,-1.9256,-1.9302,-1.936,-1.9405,-1.9456,-1.9506,-1.9564,-1.9581,-1.9608,-1.9639,-1.9692,-1.9715,-1.9691,-1.9764,-1.9766,-1.9744,-1.9754,-1.9741,-1.9765,-1.9757,-1.9758,-1.9758,0,-1.8971,-1.9031,-1.9109,-1.9191,-1.9215,-1.9254,-1.9324,-1.9372,-1.944,-1.9471,-1.9519,-1.9558,-1.9615,-1.9621,-1.97,-1.9683,-1.9716,-1.9747,-1.9749,-1.9758,-1.9762,-1.9764,-1.9774,-1.9777,-1.9766,-1.9765,-1.9764,0,-1.8947,-1.9048,-1.9108,-1.9141,-1.9238,-1.9265,-1.9306,-1.9374,-1.9413,-1.9474,-1.95,-1.9567,-1.9603,-1.9654,-1.971,-1.9709,-1.9784,-1.9794,-1.9811,-1.981,-1.9825,-1.9823,-1.984,-1.9846,-1.9846,-1.9845,-1.9845,0,-1.8967,-1.9012,-1.9099,-1.9136,-1.9189,-1.925,-1.93,-1.9346,-1.9406,-1.9452,-1.95,-1.9542,-1.9614,-1.9665,-1.971,-1.9769,-1.9785,-1.9811,-1.9822,-1.9807,-1.9804,-1.983,-1.9829,-1.9847,-1.9846,-1.9846,-1.9846,0,-1.895,-1.901,-1.9078,-1.9164,-1.9187,-1.9222,-1.9296,-1.9334,-1.9381,-1.9439,-1.9457,-1.9531,-1.9594,-1.9655,-1.974,-1.977,-1.9828,-1.9843,-1.9805,-1.9812,-1.9825,-1.9823,-1.986,-1.9868,-1.9867,-1.9867,-1.9867,0,-1.8958,-1.8994,-1.9084,-1.9119,-1.916,-1.9215,-1.9255,-1.9317,-1.9357,-1.9437,-1.9465,-1.9531,-1.9588,-1.9687,-1.9749,-1.9814,-1.983,-1.9839,-1.9841,-1.9824,-1.9831,-1.9828,-1.9832,-1.9837,-1.9837,-1.9837,-1.9836,0,-1.8966,-1.8994,-1.905,-1.9117,-1.9164,-1.9219,-1.9277,-1.9302,-1.9375,-1.9418,-1.9483,-1.9527,-1.9613,-1.9679,-1.9751,-1.9795,-1.9828,-1.9835,-1.9843,-1.9828,-1.9804,-1.9817,-1.9801,-1.9834,-1.9835,-1.9835,-1.9835,-1.9835,-1.8963,-1.8997,-1.9066,-1.9127,-1.9176,-1.9229,-1.9268,-1.932,-1.9376,-1.9451,-1.9484,-1.955,-1.9617,-1.9718,-1.976,-1.9813,-1.9821,-1.9832,-1.9834,-1.9836,-1.9833,-1.9796,-1.9826,-1.9827,-1.9827,-1.9827,-1.9827,0,-1.8973,-1.902,-1.9075,-1.9154,-1.9202,-1.9229,-1.9293,-1.9332,-1.9389,-1.9449,-1.9504,-1.9579,-1.9643,-1.9709,-1.9777,-1.9806,-1.9823,-1.9822,-1.9821,-1.983,-1.9822,-1.9809,-1.9807,-1.9807,-1.9807,-1.9807,-1.9807,-1.9807,-1.8985,-1.9045,-1.908,-1.9165,-1.9212,-1.9277,-1.9311,-1.936,-1.9408,-1.9489,-1.9543,-1.9586,-1.9648,-1.9721,-1.9781,-1.9799,-1.9822,-1.9817,-1.9839,-1.9829,-1.9831,-1.9832,-1.982,-1.9821,-1.9821,-1.9843,-1.9843,-1.9843]},{"header":{"parameterUnit":"m.s-1","parameterCategory":1,"la1":30.2991,"la2":30.254,"lo1":-89.0895,"lo2":-89.0444,"dy":0.0017,"dx":0.0017,"nx":28,"ny":28,"refTime":"2024-07-27T03:00:00:Z","depth":0,"parameterNumber":3,"parameterNumberName":"V-component_of_WINDS"},"data":[0,0,0,0,0,0,0,0,0,0,0,0,0,0,0,0,0,0,0,0,0,0,0,0,0,0,0,0,0,0,0,0,0,0,0,0,0,0,0,0,0,0,0,0,0,0,0,0,0,0,0,0,0,0,0,0,0,0,5.5086,5.5088,0,5.5279,5.5281,5.5283,5.5239,5.5235,5.5231,5.5228,5.5421,5.5429,5.5438,0,0,0,0,0,0,0,0,0,0,0,0,0,5.4676,5.4684,5.5086,5.5089,5.5091,5.5278,5.5281,5.5283,5.5239,5.5235,5.523,5.5226,5.5418,5.5428,5.5438,0,0,0,0,0,0,0,0,0,0,0,0,0,5.486,5.4686,5.5086,5.5092,5.5094,5.5278,5.5281,5.5284,5.524,5.5235,5.5229,5.5224,5.5415,5.5427,5.544,5.5628,0,0,5.5479,5.5485,0,0,0,0,0,0,0,0,5.4849,5.4875,5.5088,5.5092,5.5095,5.5229,5.5207,5.5399,5.5242,5.5185,5.5228,5.5222,5.5361,5.5378,5.5426,5.5637,5.5646,5.548,5.5488,5.5493,5.5497,0,0,0,0,0,0,0,5.4836,5.4866,5.5162,5.5091,5.5095,5.5083,5.5103,5.5243,5.5301,5.5189,5.5186,5.521,5.5362,5.5414,5.543,5.5648,5.548,5.5491,5.5499,5.5504,5.602,5.6026,0,0,0,0,0,0,5.4822,5.4856,5.5156,5.5168,5.4956,5.5095,5.5117,5.5191,5.53,5.5311,5.5215,5.5207,5.5395,5.5415,5.5437,5.5662,5.5493,5.5505,5.5513,5.6014,5.6021,5.6028,0,0,0,0,0,0,5.4813,5.4849,5.5148,5.5011,5.5048,5.5108,5.5191,5.5198,5.525,5.5319,5.5328,5.5257,5.5391,5.5419,5.558,5.5668,5.5511,5.5523,5.6007,5.6016,5.6025,5.6115,0,0,0,0,0,0,5.4801,5.4846,5.492,5.5013,5.5056,5.529,5.5197,5.5206,5.5273,5.5265,5.5361,5.5372,5.5389,5.5562,5.5593,5.5683,5.5533,5.5999,5.6011,5.6022,5.6104,5.6126,5.6144,0,0,0,0,0,5.4787,5.4937,5.4924,5.496,5.5149,5.5296,5.532,5.5337,5.528,5.5353,5.5397,5.5369,5.5654,5.5579,5.5614,5.5708,5.5994,5.6008,5.6021,5.6095,5.6121,5.6144,0,0,0,0,0,0,5.4851,5.495,5.4936,5.5121,5.52,5.5288,5.5381,5.5365,5.5462,5.545,5.5467,5.5489,5.5653,5.5697,5.5612,5.5895,5.5815,5.5837,5.5859,5.5885,5.5905,5.5889,5.5543,0,0,0,0,0,5.4887,5.4999,5.5079,5.5234,5.5275,5.5321,5.5386,5.5393,5.5475,5.5508,5.5564,5.5643,5.575,5.5821,5.5923,5.6111,5.6129,5.6193,5.6213,5.6229,5.6247,5.6346,5.6374,5.6073,5.6072,5.6072,0,0,5.4962,5.503,5.5099,5.5249,5.5311,5.5425,5.535,5.5474,5.5557,5.5526,5.5682,5.5726,5.5816,5.599,5.607,5.6032,5.6334,5.6247,5.6259,5.6268,5.6363,5.6391,5.6416,5.6082,5.608,5.6079,0,0,5.5156,5.522,5.5355,5.5419,5.5515,5.5544,5.5577,5.5667,5.5695,5.5852,5.583,5.5929,5.6114,5.6178,5.6235,5.6452,5.6429,5.6485,5.6588,5.6685,5.6709,5.673,5.6804,5.6831,5.6503,5.6503,5.6503,0,5.5236,5.5408,5.5426,5.5552,5.5617,5.5595,5.573,5.5791,5.5915,5.596,5.5916,5.6146,5.6206,5.6393,5.6446,5.6494,5.6529,5.6473,5.6704,5.6726,5.6745,5.6816,5.6844,5.6509,5.6508,5.6508,5.6507,0,5.5501,5.562,5.5718,5.5838,5.5914,5.6044,5.608,5.6155,5.6155,5.6188,5.6347,5.6417,5.6532,5.6578,5.658,5.6766,5.6739,5.67,5.662,5.678,5.6846,5.6874,5.6517,5.6515,5.6514,5.6512,0,0,5.574,5.5868,5.5903,5.5956,5.6059,5.6151,5.6279,5.6392,5.6455,5.6541,5.6647,5.6804,5.6768,5.6832,5.6841,5.6926,5.7089,5.6876,5.6878,5.691,5.7295,5.7321,5.7353,5.7075,5.7081,5.7085,5.7286,0,5.594,5.6166,5.6186,5.6388,5.6497,5.6477,5.6588,5.6663,5.6697,5.6793,5.6831,5.6941,5.6887,5.6925,5.7009,5.7051,5.7166,5.7038,5.7171,5.7176,5.7146,5.7388,5.7417,5.7603,5.7313,5.7317,5.732,0,5.6204,5.6298,5.6511,5.6597,5.6643,5.6743,5.6847,5.694,5.7023,5.7042,5.7114,5.7111,5.724,5.7157,5.7334,5.7246,5.7302,5.7331,5.7339,5.7349,5.7255,5.7402,5.7663,5.769,5.7362,5.7359,5.7356,0,5.6352,5.6533,5.6683,5.6729,5.6834,5.6904,5.6951,5.7028,5.7095,5.7186,5.7228,5.7333,5.739,5.747,5.7494,5.7432,5.7669,5.7589,5.7686,5.7685,5.7734,5.773,5.8005,5.7776,5.7776,5.7775,5.7774,0,5.6573,5.6703,5.675,5.6842,5.6987,5.7008,5.715,5.7193,5.7262,5.736,5.7351,5.7443,5.747,5.7567,5.7587,5.7728,5.7755,5.7772,5.7775,5.7771,5.7769,5.7806,5.7792,5.7783,5.7781,5.7779,5.7778,0,5.6762,5.6799,5.6961,5.7047,5.7071,5.7174,5.7247,5.7334,5.7367,5.7492,5.7522,5.7574,5.7687,5.772,5.7856,5.7869,5.8034,5.8027,5.8006,5.8005,5.8099,5.8088,5.8405,5.8446,5.8192,5.8195,5.8197,0,5.6898,5.6998,5.7095,5.716,5.721,5.7316,5.7383,5.7407,5.7477,5.7578,5.7653,5.7765,5.7855,5.8037,5.8085,5.8189,5.8182,5.8286,5.8197,5.8189,5.818,5.8172,5.8181,5.8301,5.8304,5.8306,5.8308,0,5.7136,5.7149,5.7247,5.7351,5.7432,5.7515,5.7595,5.7649,5.7683,5.7763,5.7878,5.7949,5.8087,5.8198,5.8302,5.8348,5.8334,5.8336,5.8363,5.8359,5.8341,5.8349,5.8048,5.8328,5.8326,5.8324,5.8323,5.8323,5.7301,5.7387,5.7468,5.7577,5.7639,5.7714,5.7799,5.7843,5.7941,5.8055,5.8063,5.8188,5.8266,5.8405,5.8457,5.8554,5.8523,5.8564,5.8573,5.8582,5.8588,5.8329,5.8573,5.8573,5.8572,5.8572,5.8572,0,5.7534,5.7585,5.7685,5.7797,5.7882,5.7862,5.7949,5.8021,5.8131,5.8206,5.8295,5.8427,5.8534,5.8591,5.8696,5.8762,5.8758,5.8789,5.8783,5.8793,5.8611,5.8576,5.8791,5.8791,5.8791,5.8791,5.8791,5.879,5.7666,5.781,5.7833,5.8007,5.8057,5.818,5.823,5.8298,5.8358,5.8506,5.8594,5.8631,5.8698,5.8809,5.8905,5.8919,5.8956,5.8991,5.9001,5.8829,5.8806,5.8785,5.8751,5.9,5.9,5.9174,5.9176,5.9177]}]]